Theta_e
358 358 357 356 355 354 354 354 353 352 350 349 347 346 350 352 351 350 350 347 348 350 350 351 350 353 357 356 358 358 358 357 360 361 360 359 358 358 356 357 357 357 357 356 358 356 356 354 352 355 357 355 355 357 357 356 358 356 354 353 351 351 348 343 339 340 343 347 349 350 352 352 350 351 350 352 355 355 353 350 350 350 351 351 351
357 357 357 356 355 354 354 355 355 354 352 351 350 347 347 350 352 351 350 349 347 346 352 352 352 352 354 355 356 358 358 357 358 360 360 359 358 360 358 356 356 356 357 356 357 359 356 353 354 356 357 355 356 355 355 354 354 353 354 356 354 354 351 346 343 340 341 343 348 353 354 356 351 351 350 350 351 352 353 353 353 352 352 352 352
357 357 357 356 355 355 355 355 355 355 354 352 352 350 348 349 352 351 350 350 349 346 349 353 354 352 352 353 353 354 357 357 357 358 359 359 358 358 359 357 357 356 356 357 357 358 357 356 355 356 360 356 356 356 355 354 353 352 352 354 353 353 354 351 346 344 344 346 349 351 352 351 351 351 353 356 356 356 355 355 355 357 357 356 354
358 357 356 356 356 355 354 354 355 355 354 354 354 353 351 350 351 351 350 351 351 349 346 351 354 354 353 353 353 352 354 356 356 357 358 359 358 357 357 356 356 357 357 357 358 358 357 355 355 356 356 354 355 355 354 354 352 352 352 354 353 353 354 356 352 348 348 346 346 351 351 351 352 353 354 355 354 354 353 353 356 358 359 360 358
358 358 357 356 355 354 353 354 353 354 355 355 355 356 354 352 351 351 351 350 351 350 348 348 353 355 354 354 353 352 354 356 356 356 357 359 359 358 357 356 354 355 357 357 364 358 357 356 355 355 354 353 353 354 354 353 353 352 352 352 353 355 356 356 355 354 350 349 350 350 353 354 355 356 355 355 356 355 355 355 356 356 355 356 358
359 358 357 356 355 354 353 353 353 353 354 355 355 356 356 354 352 352 352 350 350 351 350 348 349 354 355 356 356 354 354 356 356 356 356 358 358 358 358 357 356 354 355 355 359 359 358 357 357 356 355 354 353 354 353 353 353 353 352 352 353 353 352 351 353 353 352 351 350 349 348 352 351 353 356 357 356 355 356 357 357 358 357 357 359
359 358 357 356 355 354 353 353 353 353 354 354 355 355 355 355 353 352 353 352 349 350 351 350 349 352 355 356 357 357 354 355 356 355 355 356 358 358 358 357 357 357 355 355 356 359 359 359 357 357 356 355 354 353 353 353 353 353 354 354 353 353 353 353 352 352 351 350 350 351 351 353 354 353 355 359 359 358 355 354 353 357 359 358 358
358 358 357 356 355 354 354 354 353 353 354 354 355 355 355 355 354 353 353 352 349 349 350 352 351 351 354 356 357 359 356 355 355 355 355 355 356 357 357 357 357 357 357 357 356 357 358 359 359 358 357 356 355 354 353 353 354 353 354 355 355 353 352 352 351 352 351 351 351 351 350 352 351 355 357 354 351 352 356 356 353 353 355 356 360
357 358 357 356 355 355 355 355 355 354 354 354 354 354 354 354 354 353 352 352 351 350 351 353 353 352 353 355 356 358 358 357 356 356 355 354 355 356 356 357 357 356 356 356 356 357 358 359 359 359 359 367 362 360 359 359 355 353 353 353 353 354 353 353 352 350 350 351 351 352 351 351 351 351 351 350 350 351 354 354 355 352 353 353 356
356 357 357 357 356 355 355 355 354 355 354 353 353 353 353 353 353 354 353 352 351 350 351 352 354 354 354 354 355 356 357 359 354 345 349 355 355 355 356 356 356 356 356 355 355 355 356 358 360 369 367 362 354 351 349 352 358 357 355 354 354 353 353 352 352 353 352 351 352 352 351 351 352 351 351 351 354 354 352 352 350 350 350 351 352
356 356 357 358 357 356 355 354 354 354 354 354 354 353 352 352 353 354 354 353 352 351 350 351 352 354 355 355 354 354 355 356 344 336 339 344 355 355 354 354 355 355 355 354 354 354 355 356 357 365 369 370 358 347 346 345 346 349 352 359 363 356 354 353 354 354 353 353 353 352 352 352 352 352 351 352 353 351 353 352 350 347 348 346 346
355 356 357 358 358 356 355 355 354 354 354 354 354 353 352 352 352 353 354 352 352 352 350 350 352 353 355 356 355 355 355 348 336 334 336 337 346 357 355 354 355 354 353 354 354 354 354 355 356 357 357 356 360 358 350 346 342 343 344 346 350 356 357 357 355 354 354 354 353 353 352 352 352 350 352 352 351 351 350 350 348 347 347 345 346
354 355 357 359 358 357 356 355 355 354 354 355 354 353 352 352 351 352 353 354 353 352 351 350 351 353 354 355 356 357 356 343 333 332 333 334 336 350 355 353 354 354 353 353 353 353 353 353 353 355 356 367 365 358 356 354 344 338 340 342 344 343 340 343 349 359 357 355 354 353 353 351 349 350 352 351 351 350 347 345 345 347 350 349 349
347 352 357 359 358 358 356 356 355 355 355 355 355 353 352 352 352 352 354 355 353 353 352 350 351 353 354 354 356 358 357 345 330 329 330 331 333 341 356 353 352 353 354 354 354 352 352 352 351 351 350 352 354 354 355 354 353 350 347 346 348 351 345 337 335 337 343 350 348 346 347 346 345 346 350 351 351 349 346 345 345 346 349 351 351
346 344 347 354 359 358 357 356 355 355 356 356 355 354 353 352 352 352 353 354 354 353 352 351 350 353 355 355 355 357 359 339 327 326 326 326 330 336 355 355 352 350 351 354 354 353 352 352 352 351 350 349 350 354 353 354 353 352 350 348 349 349 351 352 350 348 345 345 345 347 348 348 347 348 349 350 351 350 350 348 349 352 353 350 349
347 347 347 348 357 358 357 356 356 356 356 356 355 354 353 352 352 352 352 353 355 355 354 353 352 351 354 356 355 355 358 333 327 325 324 325 328 344 353 354 353 351 349 350 353 354 354 353 352 352 351 351 353 346 353 355 355 354 352 351 351 351 352 355 344 347 354 352 350 349 350 351 344 350 351 351 350 351 355 357 353 350 346 346 346
347 347 348 351 358 359 358 357 356 356 356 356 355 355 354 353 353 354 351 351 354 354 354 353 353 352 352 354 355 355 357 336 325 322 322 323 327 347 352 354 354 352 351 351 352 354 356 355 353 353 353 352 348 336 337 353 353 356 356 356 357 356 356 359 342 334 335 333 334 336 335 335 334 333 331 333 346 350 351 348 349 350 346 343 344
348 348 349 352 358 360 359 358 357 357 356 356 356 356 356 355 353 355 352 351 351 354 355 354 354 354 352 352 354 355 357 339 321 321 320 320 331 349 352 353 353 353 352 352 354 356 360 368 366 354 353 353 341 333 334 344 348 349 351 354 356 358 360 364 365 357 334 330 330 330 331 333 335 335 336 334 333 343 350 347 350 347 346 344 343
349 349 350 354 359 361 360 359 358 357 357 357 357 357 356 355 354 355 354 353 351 354 356 355 354 354 354 353 351 351 354 342 317 320 319 318 330 350 352 353 352 352 352 351 351 352 352 360 366 361 357 352 337 332 331 342 350 350 349 349 350 351 355 358 360 359 355 351 351 348 347 346 346 344 345 334 331 341 349 351 352 348 346 346 346
350 351 353 357 361 361 361 360 359 358 358 358 358 358 358 357 355 354 354 354 351 352 355 355 354 354 355 355 354 353 352 352 329 316 316 316 321 349 352 352 351 352 352 351 351 350 351 351 350 334 330 332 331 327 326 328 351 354 353 352 350 350 355 355 356 357 356 357 357 356 353 355 354 351 349 348 346 348 347 349 350 350 348 347 347
350 351 355 359 361 362 362 361 360 359 360 359 359 359 359 358 356 355 354 354 352 351 352 354 355 355 355 356 355 355 354 353 340 313 313 314 316 331 352 352 352 352 352 352 351 351 351 352 352 340 328 324 322 321 319 319 334 356 356 355 355 354 355 356 357 370 360 357 355 357 358 355 355 354 352 352 352 353 351 348 350 351 350 349 347
347 350 358 360 361 362 362 362 362 361 361 361 360 359 359 359 358 356 355 353 351 350 352 354 355 355 356 356 356 355 354 345 352 316 314 312 314 319 347 353 353 353 352 352 353 352 353 353 354 345 331 325 321 318 316 317 320 345 356 337 338 341 356 358 358 359 357 356 352 351 352 353 356 356 356 356 356 356 355 356 355 354 354 353 349
347 351 356 360 361 362 363 362 362 363 363 362 361 359 360 359 358 357 355 353 351 350 352 354 354 355 355 356 356 356 357 353 339 333 314 311 311 314 326 342 337 354 354 352 353 354 355 355 356 351 330 322 319 318 317 317 321 333 328 328 330 334 351 357 356 355 351 351 351 350 348 350 350 352 354 354 355 343 342 345 346 346 346 347 347
346 351 358 359 360 362 363 364 364 364 364 363 362 361 361 360 359 357 355 353 351 350 350 352 353 354 354 355 356 356 357 358 340 328 324 312 311 313 317 325 332 349 356 355 355 356 356 356 352 336 325 317 316 318 319 319 331 322 319 324 329 338 349 350 347 351 349 347 348 348 348 347 349 350 350 351 348 344 343 345 346 346 345 344 343
351 350 354 359 360 362 364 364 364 365 365 365 363 361 361 361 359 358 357 354 352 350 350 350 351 352 353 354 355 356 357 358 355 334 323 315 313 312 314 319 322 328 351 356 356 357 344 336 333 327 324 318 317 318 319 319 317 320 321 323 341 345 346 348 349 349 348 348 348 348 348 348 350 351 352 350 344 344 345 346 346 344 344 343 343
352 354 356 357 359 362 363 364 365 365 366 366 365 364 362 362 360 359 358 356 354 352 351 350 349 350 350 353 354 356 357 357 357 349 331 323 317 313 315 317 322 324 339 352 346 339 332 330 327 326 326 326 331 335 337 338 325 321 323 330 337 343 346 347 347 347 348 348 347 347 349 347 348 351 350 344 341 340 342 342 340 339 341 341 338
353 355 357 358 359 362 363 363 364 364 365 366 366 365 364 363 361 359 359 358 356 354 352 351 350 349 349 349 351 354 355 357 358 352 343 336 331 326 319 321 320 322 331 341 343 341 331 333 334 328 332 326 334 336 336 339 338 335 332 334 337 342 344 346 347 348 346 347 346 347 348 349 348 347 343 342 341 343 343 340 338 336 340 339 333
353 356 358 358 359 361 362 362 362 363 363 365 365 365 364 363 362 360 359 359 357 355 354 352 351 350 349 349 349 350 352 355 358 355 345 341 337 333 328 328 328 330 334 340 344 348 345 336 331 341 338 336 338 343 342 344 341 338 337 336 338 341 345 349 351 347 348 348 348 345 345 347 343 344 343 342 341 342 342 338 337 337 337 337 333
354 357 358 359 359 360 362 362 363 363 363 363 365 365 364 363 361 362 364 364 361 359 357 356 354 354 353 351 349 348 349 351 356 340 349 330 336 337 333 331 332 333 332 329 344 347 347 346 347 348 346 345 343 347 348 348 345 342 341 340 340 342 344 345 346 347 347 346 347 347 347 347 344 344 342 342 342 342 341 339 339 339 338 334 330
356 358 359 359 360 359 360 361 362 362 363 362 362 362 346 332 350 362 361 350 342 337 336 356 358 356 355 354 353 350 350 352 336 326 320 316 316 320 322 320 320 331 328 320 334 344 346 348 348 348 348 348 348 347 349 350 349 347 345 337 341 344 344 345 346 347 347 347 349 348 348 346 344 342 342 340 342 341 338 333 336 337 333 331 330
357 358 357 357 356 358 359 360 361 362 362 362 362 359 352 341 312 307 318 340 334 323 320 326 332 337 353 355 351 336 337 333 320 314 314 313 313 313 313 313 313 315 316 325 334 340 343 344 345 347 347 348 348 348 347 348 348 349 350 348 347 346 343 346 347 345 345 346 348 351 349 345 342 340 340 339 338 336 336 337 337 337 333 331 330
341 340 346 344 342 344 351 356 359 360 360 361 361 357 353 350 346 315 302 316 324 319 316 319 320 322 329 340 354 350 332 322 317 310 312 312 312 311 310 310 309 311 310 318 336 337 341 344 344 346 347 347 347 348 348 349 349 349 350 350 349 348 347 347 346 348 346 347 348 349 350 346 342 339 337 336 334 334 332 333 334 334 333 333 333
341 341 341 342 344 345 345 345 347 356 358 358 359 358 355 352 351 345 328 304 300 304 308 311 314 318 322 324 328 329 327 320 314 309 309 310 310 309 309 308 307 305 312 331 340 339 340 343 345 346 347 347 348 349 348 349 349 350 350 349 348 349 350 349 346 350 348 349 349 347 342 340 340 337 335 335 334 333 331 330 331 331 331 330 333
341 342 342 343 342 343 345 346 347 349 351 356 359 358 356 355 354 346 338 337 337 322 308 303 301 301 297 298 305 316 317 315 310 307 306 308 308 306 306 310 301 305 320 339 341 341 342 343 344 346 347 348 349 348 347 348 348 349 349 350 350 351 351 352 350 348 343 340 341 338 339 339 337 335 332 332 333 334 333 331 331 330 330 330 329
343 344 348 348 343 344 345 347 347 347 349 349 352 356 356 355 352 346 345 343 344 343 339 331 308 299 314 307 296 297 298 300 302 303 303 304 304 302 309 329 331 329 330 338 342 344 344 343 344 344 346 347 348 348 348 349 349 349 349 350 350 350 347 346 343 340 338 337 336 335 335 334 331 329 329 328 328 329 329 330 330 330 330 328 327
342 342 344 345 348 347 348 346 347 348 349 349 348 348 352 353 352 349 345 347 347 345 341 332 324 310 301 297 296 297 297 298 298 299 300 301 303 314 340 339 338 336 335 337 342 345 345 346 345 345 345 347 349 350 350 350 351 352 351 350 348 345 341 337 334 333 333 333 332 331 329 332 332 331 332 331 330 329 328 328 327 327 325 322 324
341 341 340 342 348 347 348 347 346 344 341 343 342 345 345 348 350 350 349 350 349 348 340 328 329 331 325 322 309 300 298 300 300 300 301 303 307 333 347 345 344 340 338 339 341 345 346 347 348 349 349 349 350 352 352 352 353 352 343 343 342 341 338 335 332 331 332 332 332 332 331 332 332 331 330 328 328 329 328 327 324 324 323 322 323
341 338 338 338 342 346 345 345 343 340 343 344 343 342 342 339 338 339 341 340 343 343 338 337 337 338 334 328 331 325 315 308 311 312 312 314 326 338 347 350 347 344 342 342 342 345 347 349 351 351 352 349 348 345 346 348 348 345 341 340 336 333 328 331 331 333 333 332 332 331 330 329 328 326 325 327 326 326 327 324 320 320 320 319 320
341 332 328 329 334 341 342 342 342 342 341 340 341 342 340 339 339 340 341 343 341 339 339 340 337 333 331 329 328 329 335 340 339 337 336 335 336 340 344 349 348 349 348 347 345 345 348 348 347 343 343 344 343 342 341 340 338 336 334 334 333 332 331 332 332 332 331 331 330 332 333 332 330 328 325 326 326 326 325 324 322 321 320 318 319
338 337 332 330 338 339 341 343 342 341 340 340 340 340 336 335 335 337 342 344 341 338 336 333 331 333 335 337 334 336 341 340 340 340 339 340 340 341 336 336 337 338 339 339 343 346 342 339 340 339 339 339 339 338 337 337 335 334 334 334 333 332 332 332 332 332 331 330 328 328 329 330 330 328 327 327 327 326 326 326 322 321 321 319 319
331 333 336 330 332 338 341 338 337 337 338 337 337 336 337 338 338 338 336 334 333 331 329 326 324 322 318 314 312 321 336 334 332 332 331 330 328 328 328 329 330 330 330 330 331 331 332 331 331 331 332 333 334 335 335 334 334 333 333 331 332 330 331 330 330 331 332 329 326 325 325 328 329 329 327 326 323 325 326 325 323 321 321 320 321
327 326 328 328 329 333 333 333 334 336 336 335 334 333 333 334 334 333 332 331 329 328 326 325 324 321 312 308 307 310 324 325 325 325 325 325 324 324 325 325 325 325 325 325 324 323 322 320 318 317 316 316 319 323 328 331 332 332 331 331 330 328 327 326 326 327 330 331 329 328 328 330 330 328 328 323 324 325 325 324 324 323 322 321 320
325 324 325 326 325 325 327 328 329 328 328 329 330 331 331 330 330 330 330 329 328 327 326 324 323 322 319 311 313 314 322 323 323 321 320 319 318 317 317 316 316 316 317 318 319 318 315 312 310 309 308 308 308 308 309 312 318 323 325 326 327 327 328 328 329 329 330 330 330 328 329 327 326 327 328 325 325 323 320 320 321 321 320 322 321
321 321 322 322 321 322 322 323 323 323 323 324 325 325 325 324 323 321 320 320 320 321 322 321 319 318 317 315 314 317 318 316 315 314 314 313 312 311 311 311 310 309 309 310 310 310 309 307 305 304 304 304 304 304 304 304 305 307 311 313 314 315 316 317 318 321 325 330 329 328 328 327 326 326 324 323 324 322 321 323 323 322 322 324 325
317 318 318 317 318 318 318 319 319 319 320 320 319 319 320 319 317 317 317 316 315 315 314 315 314 313 312 311 310 310 310 311 312 311 310 309 308 307 306 306 305 304 303 304 304 305 304 303 303 302 301 301 302 302 301 302 302 302 303 304 305 307 309 313 315 318 322 324 323 322 322 322 321 320 320 321 321 322 322 322 322 322 321 322 322
315 315 315 314 315 315 315 315 316 315 315 314 314 314 315 315 316 315 314 314 313 312 311 311 310 309 308 307 307 307 306 306 306 306 305 305 305 304 303 303 302 302 302 301 301 301 300 300 300 299 298 298 299 299 298 298 298 298 298 299 300 302 305 309 311 316 322 324 325 325 323 322 321 323 324 321 321 321 322 321 321 321 320 319 318
312 312 312 312 311 312 312 313 313 312 312 312 312 311 310 310 310 311 312 311 310 310 309 308 307 306 306 305 305 304 305 304 303 303 303 303 302 302 301 301 300 300 299 299 298 298 297 297 297 297 297 297 296 296 296 296 295 295 296 296 297 298 300 305 310 315 319 321 323 323 321 319 317 317 318 318 317 317 317 317 317 317 316 315 314
309 310 310 310 310 309 309 309 309 310 309 309 309 309 309 308 308 307 307 307 307 307 306 305 305 304 304 304 304 304 303 303 303 302 301 301 301 301 302 301 301 300 300 299 298 297 297 296 295 295 295 295 295 294 294 294 294 294 294 295 296 296 297 301 307 310 314 316 318 319 317 314 312 313 314 314 314 315 314 314 314 314 314 314 313
307 307 307 307 307 307 307 307 307 306 306 306 306 306 306 306 305 305 305 305 305 304 304 303 303 303 303 303 303 302 302 301 300 299 299 298 298 297 297 297 297 296 296 296 295 295 295 295 296 295 295 295 295 294 294 293 293 293 293 293 293 293 292 295 300 304 304 311 312 313 312 310 308 309 310 310 311 312 312 312 312 312 312 312 312
305 305 305 305 304 304 305 305 305 304 305 304 304 303 304 303 303 303 302 302 302 302 302 303 303 302 302 301 302 301 300 300 299 298 298 297 296 295 294 294 293 293 293 294 294 295 295 295 295 295 296 296 295 295 294 293 292 292 292 292 291 290 291 293 294 297 304 306 306 305 305 305 305 306 307 307 308 309 308 309 309 309 310 310 310
304 303 304 303 303 303 302 302 302 302 302 302 301 301 301 300 300 300 300 300 299 299 300 300 300 301 301 301 302 300 299 298 298 298 297 296 295 294 294 294 294 293 293 293 293 293 294 294 294 294 295 295 295 295 294 293 292 291 291 291 290 290 291 293 296 293 296 298 303 303 303 302 302 302 304 305 306 307 308 307 306 306 307 307 308
Wind_Speed
18 16 15 15 14 15 15 14 15 13 14 14 14 13 12 12 12 12 11 11 9 10 11 11 11 10 10 10 10 10 9 9 7 8 8 8 7 7 6 7 7 6 5 5 4 5 5 5 5 5 4 3 3 2 3 3 4 4 4 4 5 4 5 5 4 7 6 3 4 4 4 2 3 3 5 6 5 5 6 7 7 7 8 7 8
18 17 16 16 17 16 16 15 14 14 15 15 14 14 13 12 12 11 12 13 12 11 11 11 11 12 10 10 10 10 10 10 9 8 9 8 8 7 7 7 8 7 6 7 6 5 4 6 6 6 5 5 4 5 5 4 3 4 5 6 6 6 5 5 6 5 8 3 4 4 5 3 5 2 4 6 6 5 5 5 5 6 7 7 6
18 16 16 16 17 16 16 15 14 16 16 15 16 15 14 13 12 13 12 11 12 12 11 11 12 12 11 10 10 9 10 10 9 9 9 10 10 9 8 7 8 8 8 8 8 6 5 5 6 6 4 5 5 6 5 5 5 5 6 5 6 6 6 6 5 5 7 7 4 5 4 3 4 5 4 4 5 4 5 6 6 6 6 7 6
17 16 17 18 18 16 16 15 16 16 17 15 16 16 15 14 12 13 13 11 12 12 12 11 11 12 13 12 11 10 10 10 10 10 10 11 10 10 9 8 7 8 9 8 8 7 7 6 5 6 5 6 5 5 6 5 5 4 4 5 6 6 6 5 6 6 6 6 3 5 3 4 5 4 5 5 6 7 6 7 6 6 6 5 5
17 18 18 19 18 17 17 16 17 17 17 15 17 16 15 14 13 14 13 13 12 12 12 11 10 12 13 13 12 12 11 11 12 12 10 10 11 10 9 8 8 8 8 8 8 8 7 7 7 5 5 6 5 6 6 6 7 6 6 4 5 6 5 6 7 6 6 7 5 3 4 4 4 4 4 5 6 6 6 6 7 7 7 7 6
17 17 17 18 17 19 18 17 18 19 18 17 17 16 15 14 14 13 14 14 13 13 13 12 11 12 13 13 13 13 12 12 12 13 12 11 10 10 10 9 9 9 8 7 7 8 8 8 7 6 6 7 7 6 6 7 6 6 6 6 6 4 5 5 5 5 6 6 5 6 3 5 4 4 4 5 7 7 7 7 5 6 6 7 7
16 17 17 18 18 19 18 18 18 18 18 17 15 15 15 15 15 15 14 14 14 13 13 13 12 12 12 12 12 12 12 11 11 12 12 11 11 10 10 10 9 7 8 9 8 7 8 8 8 7 7 8 8 7 7 6 7 7 7 7 6 5 5 5 5 5 5 6 6 6 7 5 5 7 4 5 7 7 7 7 7 6 5 6 7
16 16 15 17 17 19 18 18 17 17 16 15 15 15 15 15 15 14 13 14 14 14 14 14 12 12 12 12 12 11 12 11 11 11 11 11 10 10 10 10 10 9 7 8 9 9 9 8 8 8 9 8 8 8 7 7 6 6 7 6 6 6 6 6 5 5 5 5 6 7 5 6 4 5 3 1 3 5 5 6 8 7 5 3 4
17 16 15 16 17 17 16 15 15 15 16 15 15 15 15 14 13 13 14 14 13 14 14 14 13 13 12 12 12 11 11 11 10 11 11 11 10 10 11 11 10 10 9 8 8 8 8 9 9 8 9 11 13 11 10 9 7 7 7 6 6 6 6 5 6 6 6 6 7 5 5 6 6 5 5 4 6 8 6 3 4 3 3 3 5
16 17 18 17 16 16 15 15 15 15 16 16 16 16 15 15 14 14 15 15 14 13 13 14 14 14 13 13 12 11 10 9 12 17 15 12 11 10 9 10 10 9 10 9 9 9 9 9 9 14 15 15 15 15 15 15 14 10 8 7 8 7 7 7 7 6 6 7 8 7 7 8 7 5 5 4 5 4 4 1 1 3 3 4 3
14 16 17 15 14 14 14 15 15 16 17 16 16 16 16 15 14 14 14 14 14 13 11 13 14 14 14 14 13 12 11 10 16 16 17 17 12 9 9 9 9 9 9 9 10 10 9 10 9 11 13 16 15 18 18 17 17 16 15 13 11 9 7 8 7 6 7 7 7 6 7 9 8 5 6 6 4 2 1 1 2 2 3 6 8
15 15 14 12 14 15 15 15 16 16 16 16 16 16 14 14 15 14 14 15 14 12 13 12 13 14 13 14 14 13 12 14 17 17 17 17 15 11 9 8 9 9 9 9 9 9 9 9 9 9 8 8 9 11 15 18 18 18 17 15 14 14 13 10 9 7 6 7 7 8 6 8 7 4 5 3 2 2 2 1 2 3 4 4 5
13 14 14 14 15 15 15 16 16 16 16 16 15 14 14 14 15 14 15 15 14 14 14 12 11 13 14 14 14 13 12 15 17 19 18 18 18 15 9 9 8 10 10 10 9 9 8 8 8 8 9 15 11 8 9 12 15 18 17 17 16 15 14 14 12 9 6 7 7 8 8 5 5 6 3 2 1 4 3 3 3 3 4 5 5
14 13 13 15 15 15 15 16 16 16 15 14 14 15 15 15 15 14 13 13 15 15 14 14 11 12 13 14 13 12 13 15 18 18 19 19 19 16 11 11 10 9 10 11 10 9 9 9 9 8 7 7 7 9 8 9 9 10 11 10 10 13 14 15 15 13 7 7 7 9 9 4 9 8 7 5 5 6 4 7 4 5 6 7 5
13 7 13 13 14 15 16 16 16 15 15 15 15 16 16 14 14 13 13 13 15 15 15 15 13 11 12 13 12 12 12 16 17 19 19 19 19 16 12 10 9 9 9 9 10 10 9 9 9 9 9 8 7 6 7 7 7 8 8 10 11 10 9 10 9 8 8 8 8 10 11 9 9 10 9 7 7 8 6 6 6 6 4 1 3
15 13 15 16 17 17 17 17 16 15 15 15 16 16 16 16 15 13 12 11 11 12 12 13 14 13 11 13 13 13 12 18 19 19 20 20 20 12 11 10 9 9 9 8 8 9 10 10 9 10 10 10 12 15 12 7 6 7 8 8 8 8 9 11 11 10 9 9 9 10 10 11 12 11 10 8 6 5 6 3 2 3 2 4 6
16 18 18 18 18 19 19 18 17 17 16 16 17 17 16 16 14 11 11 11 12 13 13 13 12 13 12 11 13 13 11 16 20 21 21 22 15 11 11 10 10 10 10 8 8 8 9 10 11 11 11 10 13 16 16 13 7 8 8 8 8 7 9 7 11 15 15 16 17 17 16 16 15 16 14 11 8 4 2 3 7 5 4 6 5
18 16 15 15 17 18 18 19 18 18 17 18 18 16 15 14 14 12 12 13 13 13 12 12 12 12 13 13 11 11 12 14 21 21 22 21 17 13 11 11 11 11 11 7 5 5 7 12 12 11 11 11 14 16 16 13 10 9 7 7 7 8 9 6 5 8 15 17 17 16 15 14 14 12 11 12 11 6 6 8 7 3 5 5 6
18 18 17 16 17 17 18 18 18 18 18 18 16 16 16 15 13 12 12 11 11 10 11 11 11 11 12 13 15 13 10 11 19 21 22 21 18 12 12 11 11 11 10 10 9 8 7 8 12 10 10 12 14 16 17 14 10 10 10 8 9 10 10 5 6 5 4 4 6 7 9 12 11 9 9 12 11 9 7 8 6 5 6 6 6
19 17 15 15 15 16 16 18 18 18 18 17 15 15 13 12 14 14 13 11 10 10 11 12 13 12 11 12 12 13 13 9 13 20 21 21 23 15 10 11 12 12 11 11 10 9 10 10 11 14 15 14 13 15 16 17 12 10 8 9 10 12 9 5 6 6 5 6 6 6 8 8 7 6 6 7 8 8 8 8 7 6 7 7 6
16 15 15 16 16 17 16 17 19 18 17 15 15 13 13 14 14 14 14 13 11 10 12 12 13 12 12 11 11 12 12 12 11 19 19 21 22 18 11 12 12 12 11 11 10 10 10 11 10 14 17 17 16 14 13 14 14 10 10 10 11 10 5 5 7 10 6 4 4 4 5 5 5 5 6 7 7 7 7 7 7 7 7 6 5
12 14 14 16 16 16 17 16 16 15 14 13 13 14 13 13 13 14 13 13 14 13 11 11 12 12 11 11 11 11 13 18 10 16 20 20 20 22 12 13 14 12 11 10 10 10 11 11 10 14 18 17 16 15 15 13 15 9 10 13 13 10 7 6 6 6 5 4 4 4 3 2 4 5 5 5 5 5 4 6 7 6 6 6 6
13 14 14 14 15 15 15 16 15 12 12 14 15 14 12 13 13 13 13 13 14 14 12 11 11 11 11 10 10 11 10 12 17 13 18 20 21 22 22 16 18 13 12 12 12 12 11 10 10 14 14 15 16 16 16 17 12 11 15 14 14 13 10 6 6 6 6 5 5 6 5 3 2 2 4 4 2 3 3 3 4 5 4 3 3
11 12 13 15 15 15 15 15 15 13 14 14 14 13 13 13 12 12 13 13 13 13 12 10 10 12 12 11 11 11 10 10 14 18 17 22 22 24 24 21 19 14 13 12 12 12 10 9 10 13 14 16 16 16 17 15 12 16 17 17 15 9 6 6 5 6 5 5 6 5 4 3 3 3 2 3 2 3 4 4 4 4 4 3 2
11 13 14 14 15 14 14 14 14 14 13 14 13 13 14 13 12 12 12 13 13 13 12 12 11 11 11 12 11 11 11 11 10 15 22 22 23 24 24 25 21 21 15 12 11 10 11 12 12 15 15 15 15 13 12 13 16 16 17 17 14 6 6 5 6 5 6 7 6 5 5 5 5 5 4 3 2 3 3 3 3 3 3 2 1
12 14 14 15 15 15 14 14 14 13 13 12 13 13 13 13 13 11 12 13 13 13 13 12 12 11 11 11 11 11 11 11 10 11 13 17 18 23 25 25 24 21 19 15 15 14 13 15 13 7 5 5 5 5 7 10 14 16 15 11 6 7 7 7 6 7 8 7 7 7 7 4 5 5 3 3 5 6 4 4 5 2 2 3 2
13 13 14 14 14 14 14 12 12 12 12 11 11 12 12 12 13 12 12 13 14 13 13 13 13 13 12 11 10 10 11 11 10 9 10 10 10 13 15 16 18 15 9 7 5 6 7 6 7 8 6 11 10 9 8 8 6 5 5 6 6 6 7 8 8 8 8 7 7 6 5 5 2 3 4 6 6 5 6 6 6 5 5 4 4
14 14 16 14 13 13 13 16 15 11 11 12 11 12 12 13 13 14 15 15 15 14 14 14 14 14 13 12 10 9 9 10 10 11 11 11 11 10 10 10 10 11 12 11 9 5 5 3 4 3 4 3 3 2 3 4 5 4 4 5 6 7 7 7 6 4 5 6 5 4 3 3 4 5 5 6 6 6 5 5 4 4 3 4 1
14 15 14 13 12 12 13 12 12 11 10 11 11 11 13 12 12 12 13 12 13 14 15 14 14 14 13 13 13 12 10 10 12 14 15 16 15 11 9 11 10 10 15 18 10 4 4 5 5 5 6 7 5 5 5 5 5 5 4 5 5 5 5 6 7 7 7 5 6 6 6 6 6 6 7 7 8 8 6 6 4 5 2 2 2
12 13 14 13 12 12 11 11 11 11 12 12 11 9 3 4 10 13 13 17 19 19 15 14 14 13 13 12 13 14 15 14 10 15 17 18 19 21 19 19 18 15 17 19 12 9 8 7 7 8 7 6 7 6 6 6 5 5 5 5 5 6 6 7 7 7 6 7 7 7 8 7 7 8 8 8 6 5 5 6 4 4 4 3 1
3 9 12 11 12 13 12 11 11 11 12 11 11 11 7 4 4 3 7 13 18 19 18 17 14 14 12 11 11 15 12 7 14 17 18 19 21 20 19 19 19 20 15 10 5 9 9 9 9 8 8 7 7 7 6 6 6 6 6 6 6 8 8 8 8 7 7 7 8 8 7 8 8 8 8 5 6 6 4 2 2 3 4 5 4
5 5 2 7 9 8 4 2 4 9 10 10 10 9 9 9 5 8 13 7 17 18 16 16 16 17 15 12 8 5 6 11 15 15 19 20 20 21 19 18 18 19 16 17 9 9 10 10 9 9 9 8 9 8 7 6 6 6 6 6 7 7 9 9 9 9 9 8 8 8 7 6 6 6 6 7 7 5 5 3 3 3 4 5 5
1 1 1 1 4 9 9 9 5 1 6 11 11 10 11 11 12 7 6 14 12 8 6 4 5 7 10 8 11 13 13 12 15 15 17 20 19 19 20 18 14 12 15 9 9 8 8 9 9 8 8 10 9 7 6 6 6 6 6 7 7 9 10 10 10 10 9 8 7 3 5 6 6 6 5 6 7 6 7 7 7 6 5 4 3
8 6 2 0 0 1 5 9 9 9 7 8 10 11 11 11 10 7 6 4 6 9 13 14 12 11 11 9 6 3 6 12 14 16 16 18 19 14 11 7 12 15 13 10 9 9 8 8 8 8 7 6 6 6 6 6 6 6 7 7 8 7 9 8 8 7 5 6 7 7 7 6 6 7 7 7 7 7 8 7 6 6 4 4 3
4 9 16 10 7 5 3 2 2 4 6 5 4 6 10 10 10 10 10 11 9 7 6 4 10 12 6 6 8 10 9 8 5 6 9 10 13 17 16 11 7 2 3 5 6 7 7 7 7 6 6 5 5 6 7 6 7 7 8 9 7 6 4 5 5 6 7 7 7 8 8 8 7 8 8 7 6 4 5 4 3 4 5 6 5
9 9 9 9 6 2 3 4 5 4 3 2 2 3 8 8 10 11 10 9 8 8 5 3 2 3 9 11 10 11 12 12 12 12 11 14 17 19 10 7 6 7 7 7 7 6 6 6 6 6 6 6 6 6 6 7 7 8 7 7 6 5 6 7 7 7 6 7 7 8 8 7 7 6 5 5 5 5 2 2 2 3 4 4 3
6 6 6 5 1 3 4 5 5 5 4 4 5 4 5 10 8 5 7 8 10 8 7 6 5 5 6 6 8 11 12 14 14 15 13 12 9 2 2 7 7 7 7 7 7 6 6 6 7 7 7 7 7 7 7 7 8 7 3 3 6 7 7 7 8 8 8 8 8 8 8 7 6 6 7 7 5 4 3 3 4 5 5 5 4
6 6 4 4 3 4 5 6 6 9 9 9 8 9 9 9 11 11 8 6 7 6 4 2 3 5 5 3 4 3 7 11 14 12 9 6 3 2 4 5 6 6 6 6 6 6 6 5 6 7 6 4 3 1 2 2 4 4 6 6 6 6 9 9 8 7 7 7 7 9 9 9 7 5 5 6 5 2 2 2 6 8 9 9 7
8 11 14 9 8 7 6 6 7 7 7 7 6 8 11 9 6 8 4 2 9 9 7 5 4 5 4 2 1 2 5 5 5 5 4 4 3 2 3 5 4 3 2 4 6 7 6 3 0 3 4 5 5 4 5 5 6 8 8 9 9 8 9 8 7 7 9 8 7 6 5 5 5 4 3 3 3 4 4 3 4 6 5 4 5
9 8 11 15 9 8 6 7 8 8 7 8 8 6 6 9 10 9 9 5 6 7 8 7 6 5 2 2 3 3 7 6 5 4 4 4 5 6 6 6 5 5 5 5 4 4 6 6 5 5 5 5 5 5 5 7 8 8 8 7 8 8 8 8 7 8 8 8 8 7 7 6 6 6 5 5 5 3 3 4 7 7 8 6 4
10 10 10 11 10 9 10 10 9 8 9 10 10 10 8 5 3 8 10 9 8 9 8 7 7 5 4 5 8 9 9 9 8 9 8 8 8 8 8 8 7 8 8 7 7 8 9 8 8 7 7 7 5 5 5 6 7 7 7 7 6 7 7 7 7 7 6 6 6 5 4 4 6 6 5 4 5 6 7 7 5 5 5 5 5
10 11 12 10 11 9 9 10 9 11 12 12 11 10 11 7 4 7 10 10 9 9 9 9 9 8 11 18 17 18 13 10 10 10 10 10 10 9 9 10 9 9 9 9 9 10 10 10 10 9 9 9 8 7 7 7 6 5 7 8 8 8 8 7 6 6 6 6 6 6 5 5 6 6 6 5 4 2 4 5 7 6 4 4 4
10 10 10 10 11 11 10 10 10 10 11 12 10 10 10 8 8 9 10 10 10 10 11 11 9 10 12 15 18 18 12 11 11 11 10 10 10 11 11 11 10 10 10 11 10 9 10 10 10 10 10 9 9 8 9 8 8 7 6 6 6 7 6 5 5 3 3 5 5 5 6 5 3 2 4 5 5 5 5 5 2 1 1 2 3
8 9 9 9 10 11 11 11 12 11 11 13 12 8 7 9 10 11 10 10 10 10 11 11 10 9 9 11 12 13 11 11 11 11 11 11 11 10 10 10 11 11 11 11 11 10 10 11 12 10 10 9 8 9 9 8 9 10 9 8 8 9 8 7 6 5 4 3 3 2 2 2 1 1 2 2 2 4 3 2 4 5 5 6 3
8 8 8 10 10 10 10 9 10 10 11 11 10 10 9 10 12 11 12 12 12 12 11 10 10 9 10 10 10 10 10 10 9 9 10 11 11 11 10 11 12 12 12 12 11 11 11 11 10 10 11 10 10 10 10 10 10 9 7 6 6 6 6 6 5 4 4 6 7 7 6 7 6 6 5 6 7 7 7 5 6 5 4 3 1
8 9 9 8 10 10 9 9 9 10 9 10 10 9 9 10 12 13 13 12 11 11 10 10 9 9 9 10 9 10 9 9 10 9 9 9 9 9 10 11 11 12 11 11 10 11 11 11 11 11 11 11 10 10 11 10 8 7 7 6 5 5 4 4 3 3 6 6 7 6 6 7 7 7 8 7 8 8 8 8 7 7 7 7 6
10 10 10 9 9 9 9 9 8 8 9 10 10 10 9 10 10 10 11 13 11 10 10 9 9 9 9 9 10 10 9 9 9 9 10 11 11 10 10 9 10 11 11 11 11 11 12 11 9 9 9 8 9 9 8 8 7 7 7 6 5 6 5 5 5 5 6 6 6 7 7 7 7 7 8 8 7 7 7 7 6 6 6 6 6
8 8 10 11 10 9 9 9 10 11 10 10 10 10 10 10 10 10 9 9 10 10 10 10 10 10 10 10 9 9 9 8 9 9 9 9 9 10 10 11 11 11 11 11 11 11 10 10 10 10 10 10 10 9 9 8 8 7 7 6 7 8 10 9 7 8 7 7 7 8 8 8 7 7 6 7 6 6 7 6 5 5 5 5 5
9 9 9 9 10 10 9 10 10 10 9 9 10 11 9 9 9 10 11 10 8 10 9 9 9 9 9 10 10 9 9 9 10 10 9 8 9 10 11 10 11 11 11 10 10 11 11 10 11 10 9 8 8 8 9 8 8 8 8 7 10 16 16 16 10 9 9 8 8 7 7 7 7 7 7 7 6 6 6 5 5 5 5 5 5
9 10 10 10 10 10 10 10 9 9 9 9 10 9 9 10 10 10 11 11 10 9 9 10 10 9 9 9 9 9 9 9 9 9 9 10 11 11 11 12 12 11 11 11 9 9 9 9 9 9 9 8 9 8 8 8 8 7 6 8 14 17 16 15 16 15 11 8 9 8 7 7 7 7 7 6 6 6 7 6 5 5 5 5 5
10 10 10 10 9 9 10 10 9 10 10 9 10 9 10 10 10 10 11 11 10 10 9 9 9 9 9 8 7 8 10 10 10 10 10 10 10 11 11 11 11 11 11 10 9 9 9 8 8 8 9 9 8 8 8 7 7 7 11 15 17 16 17 14 12 13 15 10 8 8 8 7 7 7 6 5 5 6 7 6 5 5 5 5 5
Wind_Direction
183 187 188 196 197 197 198 195 195 194 194 193 195 196 194 193 194 193 190 195 188 189 194 194 193 190 185 187 185 187 190 191 188 186 189 192 196 194 192 190 195 207 208 226 218 198 205 208 228 231 212 207 228 237 254 208 197 186 190 194 204 192 164 181 207 261 289 242 252 272 283 285 288 214 249 263 275 267 242 242 244 244 245 245 248
186 184 187 192 196 198 199 197 195 194 194 195 197 197 198 196 195 192 192 196 194 192 191 193 191 190 187 188 187 187 190 193 191 186 192 193 197 196 199 193 199 201 199 211 221 220 199 205 216 217 206 201 207 223 225 244 227 212 207 193 201 209 197 174 215 222 262 294 289 284 283 270 280 256 254 279 283 288 281 264 260 247 250 252 254
188 185 186 189 196 198 197 197 196 195 196 197 199 198 199 199 195 196 195 194 196 199 194 191 189 189 189 188 187 185 189 193 193 191 196 195 195 200 202 198 195 198 198 204 211 218 221 207 211 204 195 200 210 213 209 224 230 215 219 209 211 218 208 199 192 228 248 263 228 257 248 264 227 273 281 269 268 262 278 278 260 255 246 248 253
188 188 188 191 193 194 196 198 197 196 197 199 200 200 199 200 197 198 198 194 195 198 198 193 187 187 189 189 190 188 187 192 194 197 198 196 196 199 201 203 199 197 200 200 202 204 218 222 223 207 198 199 211 214 220 220 229 232 217 215 215 221 219 209 208 213 227 254 253 230 252 256 266 255 262 269 275 280 268 274 271 265 264 255 245
188 190 190 190 191 194 197 198 199 199 200 200 201 200 199 199 198 199 197 199 195 195 197 196 187 188 190 190 191 193 191 192 194 199 199 197 197 197 198 201 205 202 200 201 198 198 207 217 225 213 199 207 217 216 215 219 225 231 246 234 205 214 219 210 217 214 229 244 264 241 232 246 251 257 243 268 278 269 269 259 259 259 267 264 266
191 191 190 189 191 195 197 198 200 201 200 200 201 200 199 199 198 199 197 198 197 195 194 196 191 190 192 192 192 195 195 194 195 198 198 196 196 198 197 201 203 204 204 198 198 198 203 212 219 214 210 209 218 218 214 215 212 217 227 239 241 231 222 226 216 215 217 237 243 280 252 252 283 257 242 240 263 280 280 269 272 266 262 273 266
195 193 190 191 190 195 196 198 199 200 200 200 199 199 200 199 199 199 197 198 197 196 195 194 195 192 194 193 194 195 196 196 197 197 198 196 196 196 198 200 204 203 206 206 205 199 202 208 213 211 213 215 219 216 213 216 212 219 218 223 227 225 234 237 231 236 239 252 262 246 267 256 233 272 254 232 246 246 261 280 279 267 260 257 277
195 195 193 193 194 195 197 197 198 199 199 199 198 199 199 200 199 198 197 199 200 198 194 193 194 194 195 196 196 194 196 199 197 198 198 198 194 197 197 198 203 207 205 206 207 208 207 208 210 213 215 217 215 222 211 214 212 219 221 216 220 220 229 233 230 226 235 244 247 260 247 264 264 252 288 299 293 287 252 238 258 270 289 282 249
195 197 198 195 196 195 194 195 197 198 198 197 199 199 199 200 198 195 196 200 201 200 195 192 191 194 196 196 197 196 196 200 198 196 198 200 197 196 198 198 200 203 209 208 204 206 210 213 216 216 214 217 217 216 215 211 204 215 225 212 217 214 224 226 228 229 238 240 259 256 265 270 259 270 286 272 256 256 258 250 276 267 243 278 294
196 198 201 200 195 191 191 193 195 196 197 198 200 199 198 198 197 195 195 198 199 200 196 193 191 192 193 196 197 199 200 200 199 196 196 198 198 199 197 200 200 201 204 208 209 208 211 214 218 216 218 219 219 220 219 217 212 207 209 203 211 214 220 225 225 223 226 239 247 251 263 262 262 244 246 241 240 262 297 278 251 286 326 295 278
201 203 206 200 191 188 190 194 194 196 198 199 199 200 198 196 197 195 193 195 197 199 197 193 193 192 193 194 197 201 203 204 197 194 197 199 197 200 197 201 203 202 201 202 208 208 212 215 222 225 221 220 220 220 222 223 223 221 216 204 199 199 213 220 227 215 216 230 238 237 244 262 262 243 242 253 256 226 209 207 267 307 325 326 313
207 207 209 199 191 189 191 192 195 198 197 200 200 200 200 197 197 194 192 193 195 196 199 196 193 191 193 194 197 200 203 202 193 194 197 199 199 201 202 200 204 206 205 205 208 207 208 210 217 223 228 225 218 224 226 227 226 227 228 222 213 209 205 203 216 221 217 229 237 236 240 247 263 245 247 233 245 286 262 273 272 301 295 289 276
220 211 212 204 196 193 189 192 196 198 200 199 199 199 201 201 199 196 194 192 190 194 200 194 194 193 192 193 196 198 203 199 192 193 197 198 200 201 206 205 202 207 209 210 209 208 208 210 212 219 224 231 227 213 213 226 230 231 232 231 229 222 222 223 216 212 197 213 225 242 227 239 259 255 222 234 197 267 280 291 278 277 262 248 257
332 296 232 205 199 192 191 194 197 200 198 197 196 199 202 204 202 199 195 190 191 195 195 197 191 193 194 193 195 197 201 197 191 194 197 198 201 200 209 208 209 209 210 211 211 210 208 207 213 221 227 229 229 223 213 215 218 224 232 234 235 238 235 233 238 244 235 226 225 244 250 207 246 255 250 243 256 255 269 275 270 272 256 246 236
187 221 303 280 204 193 193 195 198 198 197 197 197 200 203 205 204 201 196 193 193 194 194 196 195 191 193 192 193 196 202 191 187 193 198 199 202 200 211 212 214 216 215 212 211 211 210 209 211 218 222 229 231 222 221 222 219 221 224 229 231 233 230 230 227 225 223 226 233 240 253 245 245 251 254 240 239 249 243 249 252 241 233 271 304
193 191 193 221 228 198 193 194 195 195 196 196 198 200 202 203 203 201 199 195 196 194 198 197 196 193 189 190 193 199 199 183 186 191 196 200 198 197 208 211 216 220 224 218 210 211 211 211 213 218 219 221 227 228 226 214 215 223 223 230 237 237 236 230 222 214 215 220 226 234 240 240 239 242 243 241 244 248 250 256 282 269 289 291 277
207 209 208 202 208 198 192 192 192 193 194 196 199 200 200 202 202 200 201 197 191 195 196 197 196 197 194 189 193 197 200 185 186 191 195 199 190 200 203 208 215 221 226 218 212 209 211 212 214 217 220 220 218 215 224 222 222 222 225 229 232 235 244 234 211 215 221 226 230 232 237 241 244 244 249 252 242 229 208 286 266 267 282 283 278
209 209 213 213 210 199 193 190 191 192 193 198 199 199 199 199 201 197 201 198 196 195 194 197 197 199 199 199 192 190 201 187 188 191 195 193 186 194 199 204 215 220 229 224 212 213 212 217 215 220 220 224 213 205 212 211 224 227 223 225 230 236 245 229 211 221 227 232 238 243 247 250 254 259 251 238 225 199 191 228 245 222 240 237 264
210 211 212 211 211 202 194 191 190 191 195 199 196 196 196 197 197 198 203 203 201 191 191 196 198 199 201 203 200 195 198 189 191 192 195 190 188 195 194 202 210 219 222 228 228 229 237 237 232 223 221 227 214 203 206 200 213 222 222 225 235 242 244 216 216 218 205 219 248 248 256 250 245 233 232 219 208 204 206 224 239 213 235 242 252
210 209 208 211 208 199 195 191 191 192 195 195 195 196 193 192 196 199 202 203 201 195 190 195 197 200 198 201 202 203 207 193 189 197 194 191 189 191 194 194 208 215 216 219 223 229 235 242 239 237 234 234 222 206 204 200 206 218 217 221 232 240 240 225 222 210 226 226 240 224 236 239 237 222 225 220 218 216 219 226 231 218 223 232 232
206 201 201 205 202 197 194 191 191 193 193 192 192 192 192 194 194 196 200 202 203 201 195 194 197 199 199 200 202 203 207 208 190 191 195 191 193 191 190 198 205 209 212 215 219 222 227 231 236 236 235 235 233 224 210 207 211 213 213 222 224 235 220 223 232 235 229 216 221 229 234 239 230 217 216 221 226 224 217 223 228 220 216 221 219
200 192 191 197 197 194 193 192 191 189 188 184 187 194 196 194 193 195 198 200 202 204 200 194 196 198 200 198 204 205 203 205 189 192 191 192 191 196 194 201 201 205 209 215 218 224 226 225 228 231 231 235 237 232 220 213 220 222 226 226 232 223 212 218 218 214 204 220 236 257 268 242 232 225 224 223 231 226 224 224 216 208 201 200 192
194 195 193 190 191 192 192 186 186 186 186 185 187 192 191 194 195 194 196 199 202 203 201 197 195 197 197 200 203 204 202 203 191 182 192 188 192 198 203 200 203 202 205 212 215 222 223 224 229 228 225 228 230 230 226 220 213 222 230 233 231 218 212 210 204 208 223 229 234 240 240 253 277 244 233 236 221 136 123 106 108 107 93 81 109
201 194 189 191 189 188 187 185 184 187 183 181 186 188 190 194 194 196 196 198 200 202 203 200 197 197 197 199 201 203 201 198 191 183 185 192 193 197 206 210 194 202 207 215 216 220 221 220 222 220 216 219 223 226 227 220 217 222 224 230 229 213 205 203 207 214 223 237 240 244 244 243 253 266 258 252 193 148 110 99 98 99 107 96 80
200 201 196 189 187 186 183 182 185 184 181 179 184 189 191 189 195 198 196 199 200 202 204 201 202 199 198 197 199 200 199 198 189 192 188 192 195 198 204 208 209 202 206 218 218 218 220 215 210 212 218 221 224 231 237 235 231 229 225 225 222 202 205 205 211 211 225 235 239 244 243 227 228 236 238 225 122 96 100 86 90 100 111 123 153
205 200 196 192 188 182 179 182 181 181 178 182 186 189 189 191 198 197 199 201 202 202 203 203 205 205 202 199 198 198 197 198 191 190 198 193 197 200 202 206 211 209 209 214 215 211 203 208 207 196 191 204 203 210 221 227 226 226 233 233 218 211 203 205 212 217 235 240 243 245 246 234 231 234 211 148 152 159 142 135 129 156 151 158 119
200 198 192 188 183 177 176 178 177 180 180 182 187 188 192 196 199 199 199 202 203 204 202 202 206 206 207 202 197 194 195 199 192 188 187 191 202 207 209 215 217 216 229 252 251 213 190 166 163 175 169 178 187 198 207 225 224 221 215 216 211 211 208 206 210 215 223 230 236 241 237 235 222 176 157 165 168 171 167 155 158 186 181 175 137
196 194 188 181 178 177 177 174 172 178 183 184 187 191 196 200 202 203 200 200 200 201 200 203 205 203 206 204 200 196 194 195 192 188 192 191 196 191 196 201 197 202 213 221 218 190 163 129 119 138 138 154 204 173 200 203 209 201 204 197 208 211 214 213 222 222 224 218 229 221 226 197 178 174 163 167 173 171 166 152 150 156 143 129 94
196 189 183 176 176 174 172 172 176 178 182 188 192 194 197 205 209 211 209 205 207 201 200 203 203 204 201 201 199 205 204 203 203 191 187 183 178 180 180 196 198 201 211 210 199 164 135 158 183 179 199 209 205 210 210 205 212 202 197 196 202 198 198 186 203 211 212 200 209 207 215 194 189 167 169 174 180 176 163 133 149 148 132 93 146
190 182 178 176 173 172 171 171 175 179 185 189 192 197 202 204 208 207 207 210 209 209 206 206 202 197 201 205 201 199 205 211 179 170 172 176 182 180 188 190 191 195 206 200 188 193 193 200 203 205 204 203 211 211 213 208 207 202 206 197 192 196 199 206 208 208 193 200 201 202 204 192 182 176 181 191 179 140 129 137 157 149 132 142 130
263 187 174 177 171 175 174 175 178 184 186 188 195 191 193 176 44 347 267 214 203 208 203 210 206 203 201 204 210 217 212 154 156 173 173 180 187 193 194 192 192 201 187 131 171 201 209 213 220 222 220 218 220 220 211 208 208 201 203 194 198 202 203 207 209 201 200 200 204 209 198 185 182 182 182 149 116 116 128 132 130 162 144 144 156
47 355 6 125 111 106 104 119 176 185 186 191 193 187 185 193 236 10 12 288 202 193 199 193 190 190 193 189 180 202 205 192 185 172 182 185 192 196 196 194 197 194 173 160 165 193 208 212 216 220 220 226 229 223 214 214 208 201 200 202 209 208 205 214 203 199 203 202 204 211 199 178 158 144 106 106 122 130 132 151 186 186 194 186 181
354 119 115 332 135 141 148 150 134 170 215 194 195 187 189 197 200 191 30 35 45 76 97 112 149 178 186 191 189 179 186 200 205 185 182 191 193 196 197 195 187 150 124 151 191 196 206 212 218 217 213 223 225 223 220 215 217 211 208 210 211 209 210 210 190 201 204 198 191 163 119 126 124 126 149 150 148 163 168 180 197 189 196 205 208
332 324 323 178 236 178 182 167 166 159 190 233 210 190 196 198 195 167 125 99 70 50 48 44 46 75 65 65 77 117 184 195 188 184 185 190 194 182 140 98 119 155 167 179 184 200 197 206 216 220 222 223 222 213 215 213 210 220 224 225 224 211 205 195 183 170 133 126 126 133 139 135 141 141 155 171 166 169 181 192 179 173 190 228 235
18 344 338 343 347 358 342 308 199 163 170 171 268 237 199 192 180 165 171 172 168 147 133 60 26 27 68 67 57 73 79 85 106 169 187 172 136 129 120 112 112 136 234 222 191 193 193 199 208 212 216 217 215 206 213 210 211 218 227 228 216 198 164 116 112 121 131 127 126 133 141 140 141 151 157 159 154 152 183 186 184 178 189 206 196
28 23 358 354 337 19 21 24 29 24 352 296 147 336 277 223 188 177 171 159 146 133 121 79 67 59 73 64 70 81 83 81 84 92 116 137 147 140 141 164 144 169 184 193 192 187 182 186 190 207 200 214 213 215 213 216 218 221 224 219 188 135 116 119 123 117 110 115 119 118 114 112 116 124 130 126 147 153 161 153 165 172 154 156 148
46 67 29 352 22 89 60 73 69 51 41 29 2 7 312 269 247 165 149 156 156 156 136 143 136 92 62 60 64 67 80 88 86 87 97 127 156 159 133 159 168 160 179 183 186 180 178 193 190 198 199 204 212 217 218 219 223 219 180 107 110 125 128 127 130 132 130 125 124 120 112 116 124 146 152 139 146 158 188 199 153 154 159 176 147
32 35 61 69 59 55 64 61 47 52 61 77 79 72 71 45 42 46 48 49 49 76 99 158 128 122 113 51 23 90 98 99 93 81 82 84 80 64 78 129 150 165 175 176 180 189 196 198 202 212 214 201 194 167 168 178 165 129 99 90 80 85 107 115 116 115 111 114 120 123 134 145 154 149 133 142 154 180 225 190 177 165 172 178 169
33 34 31 36 72 74 67 69 62 55 70 84 86 100 98 88 81 99 79 108 120 113 100 59 53 73 79 120 88 192 110 66 70 91 88 96 71 55 43 50 62 72 137 170 181 190 203 207 41 54 71 89 112 119 122 105 84 88 103 117 124 125 113 116 117 118 118 120 115 115 119 145 146 144 143 122 178 207 211 190 186 158 185 175 183
12 22 26 29 48 60 83 77 80 74 69 70 63 53 86 130 162 159 150 144 94 82 90 98 86 67 82 134 155 148 99 104 102 114 113 93 82 52 38 50 55 59 54 54 74 93 82 67 75 75 66 60 71 82 86 101 113 121 121 120 124 124 129 132 131 125 127 129 138 155 158 151 144 138 133 184 225 234 228 201 197 197 196 192 186
7 16 22 26 38 72 82 83 82 88 75 70 70 80 66 22 49 95 95 95 101 97 84 72 67 45 8 54 65 80 87 78 69 62 59 66 59 57 52 47 47 47 46 48 52 69 69 62 48 47 42 39 39 59 87 104 114 117 112 109 100 106 114 111 116 125 132 140 153 157 140 125 130 149 173 207 233 229 211 202 210 223 193 176 187
14 17 22 21 22 38 52 65 72 80 82 77 70 78 83 79 75 97 100 106 102 96 90 79 71 69 60 66 72 77 80 78 76 75 71 68 65 59 58 56 48 49 50 50 49 58 64 65 56 48 42 27 25 22 27 37 41 73 103 113 120 125 123 122 119 118 125 139 150 147 158 173 175 184 178 183 194 220 180 193 211 192 170 172 179
18 28 28 22 26 35 38 41 43 52 67 74 75 75 88 108 118 107 98 92 90 90 89 85 79 70 63 55 67 69 74 72 72 70 67 62 60 57 54 51 46 44 45 47 46 51 60 64 60 51 47 42 33 30 37 28 25 36 43 71 83 86 88 91 86 87 109 142 146 144 149 162 159 168 169 184 200 221 225 187 161 112 176 201 220
22 28 34 36 36 40 40 44 44 42 47 57 62 61 84 99 90 80 77 74 70 69 72 69 66 59 56 43 51 64 69 72 73 73 70 67 62 60 56 53 52 51 49 48 46 48 55 62 65 61 51 43 34 36 41 40 38 41 32 38 50 53 53 46 39 27 14 55 83 99 137 125 134 269 328 321 260 211 204 112 66 44 37 31 18
23 35 42 41 38 41 39 48 57 51 54 58 57 60 57 64 73 72 75 75 71 68 65 65 62 59 59 56 56 59 58 62 62 66 69 69 68 62 59 57 56 57 55 50 47 51 53 53 54 57 56 47 42 45 48 47 49 49 42 35 39 43 31 30 15 354 24 62 66 66 63 69 70 70 64 60 60 61 61 65 81 69 47 21 355
16 36 46 47 46 46 43 43 50 62 65 70 66 56 53 60 67 70 76 76 73 71 69 68 67 65 65 61 51 53 51 54 57 55 61 66 67 66 65 66 65 62 59 57 52 54 54 53 54 57 55 52 46 44 43 40 35 34 29 28 34 35 1 339 320 359 56 67 74 79 78 72 64 63 63 65 57 49 49 39 43 44 41 34 23
21 37 40 48 46 48 48 45 48 54 59 62 66 66 61 56 60 64 64 67 70 74 73 75 71 65 62 62 61 57 54 54 58 58 64 68 69 70 71 72 72 70 66 63 61 61 57 52 47 49 50 42 36 34 30 28 29 26 26 18 15 19 9 357 356 10 34 48 63 77 74 76 66 59 58 63 67 63 64 58 55 59 56 49 43
24 35 46 46 47 48 44 48 52 50 54 60 67 65 63 64 62 60 59 62 69 70 70 69 69 70 71 68 65 64 61 60 62 64 65 64 69 72 73 73 73 74 72 67 60 55 56 53 48 46 45 43 42 40 37 32 27 19 12 8 12 14 21 20 27 23 20 37 52 62 69 70 63 58 56 59 59 61 64 57 57 58 60 60 51
34 34 39 48 52 47 44 44 49 50 48 45 54 59 56 59 61 63 62 61 60 61 62 67 71 74 75 76 77 75 74 72 70 68 64 62 66 69 70 70 71 70 67 64 60 58 55 53 51 50 47 45 44 42 39 33 30 24 21 14 13 19 28 32 35 29 29 38 46 53 58 63 61 57 51 53 55 57 64 59 54 54 55 55 51
36 41 44 46 47 48 48 49 47 51 55 56 58 60 58 64 61 60 62 61 59 58 61 66 68 67 73 78 81 81 81 79 76 74 71 73 75 75 75 72 70 66 67 65 62 59 57 51 50 50 46 41 41 40 39 35 31 24 20 16 25 32 31 33 37 32 37 45 48 52 56 61 59 54 48 44 44 52 54 50 47 46 52 53 51
36 40 44 47 49 49 51 52 49 48 50 57 58 57 59 62 65 68 67 63 62 60 60 61 65 67 68 66 68 75 79 81 79 78 78 79 81 80 77 75 74 74 72 68 62 58 56 51 46 45 44 42 38 37 37 36 31 31 30 31 32 33 35 38 39 35 39 43 51 48 56 58 65 63 57 49 48 53 56 53 46 44 41 41 40